| time (UTC) | temp F | wind direction | speed knots | gust knots | rain 1hr in | rain 24hr in | rain mn in | humidity % | barometer mb |
| 20260508004535 | 54 | 282 | 0.0 | 0.0 | 0.00 | 0.02 | 0.01 | 43 | 1002.9 |
| 20260508004034 | 55 | 287 | 0.0 | 0.0 | 0.00 | 0.02 | 0.01 | 45 | 1002.9 |
| 20260508003535 | 55 | 288 | 0.0 | 0.0 | 0.00 | 0.02 | 0.01 | 43 | 1002.7 |
| 20260508003034 | 56 | 304 | 0.0 | 0.0 | 0.00 | 0.02 | 0.01 | 42 | 1002.7 |
| 20260508002535 | 56 | 304 | 0.0 | 0.0 | 0.00 | 0.02 | 0.01 | 42 | 1002.7 |
| 20260508002035 | 56 | 304 | 0.0 | 1.7 | 0.00 | 0.07 | 0.01 | 40 | 1002.6 |
| 20260508001534 | 56 | 305 | 0.0 | 1.7 | 0.00 | 0.07 | 0.01 | 41 | 1002.6 |
| 20260508001034 | 56 | 291 | 0.0 | 1.7 | 0.00 | 0.07 | 0.01 | 42 | 1002.6 |
| 20260508000534 | 57 | 285 | 0.0 | 4.3 | 0.00 | 0.07 | 0.01 | 40 | 1002.5 |
| 20260508000034 | 57 | 257 | 0.0 | 4.3 | 0.00 | 0.07 | 0.01 | 39 | 1002.5 |
| 20260507235534 | 57 | 294 | 0.0 | 6.1 | 0.00 | 0.07 | 0.01 | 39 | 1002.5 |
| 20260507235033 | 58 | 273 | 0.0 | 6.1 | 0.00 | 0.07 | 0.01 | 40 | 1002.5 |
| 20260507234540 | 58 | 277 | 0.0 | 5.2 | 0.00 | 0.07 | 0.01 | 38 | 1002.5 |
| 20260507234033 | 58 | 301 | 0.0 | 5.2 | 0.00 | 0.07 | 0.01 | 37 | 1002.5 |
| 20260507233533 | 58 | 304 | 0.0 | 5.2 | 0.00 | 0.07 | 0.01 | 37 | 1002.2 |
| 20260507233033 | 59 | 347 | 0.0 | 2.6 | 0.00 | 0.07 | 0.01 | 38 | 1002.2 |
| 20260507232533 | 59 | 308 | 0.0 | 3.5 | 0.00 | 0.07 | 0.01 | 37 | 1002.2 |
| 20260507232033 | 59 | 308 | 0.0 | 3.5 | 0.00 | 0.10 | 0.01 | 38 | 1002.0 |
| 20260507231532 | 59 | 311 | 0.0 | 3.5 | 0.00 | 0.10 | 0.01 | 37 | 1002.0 |
| 20260507231032 | 60 | 293 | 0.0 | 3.5 | 0.00 | 0.10 | 0.01 | 37 | 1002.0 |
| 20260507230532 | 60 | 306 | 0.0 | 4.3 | 0.00 | 0.10 | 0.01 | 36 | 1002.0 |
| 20260507230032 | 60 | 284 | 0.9 | 4.3 | 0.00 | 0.10 | 0.01 | 35 | 1002.0 |
| 20260507225534 | 60 | 281 | 0.0 | 3.5 | 0.00 | 0.10 | 0.01 | 35 | 1002.0 |
| 20260507225031 | 60 | 329 | 0.0 | 7.0 | 0.00 | 0.10 | 0.01 | 35 | 1001.8 |
| 20260507224531 | 61 | 292 | 1.7 | 7.0 | 0.00 | 0.10 | 0.01 | 34 | 1001.8 |
| 20260507224031 | 61 | 307 | 0.0 | 4.3 | 0.00 | 0.10 | 0.01 | 35 | 1001.8 |
| 20260507223531 | 62 | 250 | 0.0 | 4.3 | 0.00 | 0.10 | 0.01 | 33 | 1001.6 |
| 20260507223031 | 62 | 333 | 0.0 | 9.6 | 0.00 | 0.10 | 0.01 | 34 | 1001.6 |
| 20260507222531 | 62 | 259 | 0.9 | 9.6 | 0.00 | 0.10 | 0.01 | 34 | 1001.6 |
| 20260507222030 | 62 | 279 | 0.0 | 4.3 | 0.00 | 0.11 | 0.01 | 34 | 1001.4 |
| 20260507221533 | 62 | 291 | 0.0 | 4.3 | 0.00 | 0.11 | 0.01 | 35 | 1001.4 |
| 20260507221030 | 62 | 251 | 0.0 | 7.8 | 0.00 | 0.11 | 0.01 | 35 | 1001.4 |
| 20260507220530 | 62 | 334 | 0.9 | 10.4 | 0.00 | 0.11 | 0.01 | 33 | 1001.4 |
| 20260507220030 | 63 | 273 | 0.9 | 10.4 | 0.00 | 0.11 | 0.01 | 34 | 1001.4 |
| 20260507215531 | 63 | 311 | 0.9 | 7.0 | 0.00 | 0.11 | 0.01 | 33 | 1001.4 |
| 20260507215029 | 63 | 301 | 0.9 | 6.1 | 0.00 | 0.11 | 0.01 | 33 | 1001.3 |
| 20260507214529 | 63 | 264 | 0.9 | 7.0 | 0.00 | 0.11 | 0.01 | 36 | 1001.3 |
| 20260507214028 | 64 | 236 | 0.9 | 8.7 | 0.00 | 0.11 | 0.01 | 32 | 1001.3 |
| 20260507213528 | 64 | 280 | 0.9 | 8.7 | 0.00 | 0.11 | 0.01 | 35 | 1001.2 |
| 20260507213030 | 64 | 288 | 0.0 | 7.0 | 0.00 | 0.11 | 0.01 | 36 | 1001.2 |
| 20260507212527 | 64 | 274 | 0.0 | 7.0 | 0.00 | 0.11 | 0.01 | 32 | 1001.2 |
| 20260507212028 | 65 | 324 | 0.9 | 4.3 | 0.00 | 0.17 | 0.01 | 33 | 1001.2 |
| 20260507211528 | 65 | 305 | 0.0 | 4.3 | 0.00 | 0.17 | 0.01 | 34 | 1001.2 |
| 20260507211029 | 65 | 291 | 0.0 | 7.8 | 0.00 | 0.17 | 0.01 | 34 | 1001.2 |
| 20260507210527 | 65 | 312 | 0.0 | 7.8 | 0.00 | 0.17 | 0.01 | 33 | 1001.4 |
| 20260507210027 | 64 | 349 | 0.9 | 7.8 | 0.00 | 0.17 | 0.01 | 32 | 1001.4 |
| 20260507205527 | 65 | 223 | 2.6 | 7.8 | 0.00 | 0.17 | 0.01 | 31 | 1001.4 |
| 20260507205027 | 65 | 236 | 0.9 | 4.3 | 0.00 | 0.17 | 0.01 | 32 | 1001.2 |
| 20260507204526 | 65 | 316 | 0.0 | 3.5 | 0.00 | 0.17 | 0.01 | 34 | 1001.2 |
| 20260507204027 | 65 | 302 | 0.0 | 7.0 | 0.00 | 0.17 | 0.01 | 34 | 1001.2 |
| 20260507203526 | 65 | 275 | 0.9 | 7.0 | 0.00 | 0.17 | 0.01 | 31 | 1001.3 |
| 20260507203027 | 64 | 315 | 0.9 | 11.3 | 0.00 | 0.17 | 0.01 | 31 | 1001.3 |
| 20260507202525 | 64 | 302 | 0.0 | 11.3 | 0.00 | 0.17 | 0.01 | 33 | 1001.3 |
| 20260507202025 | 65 | 261 | 0.0 | 8.7 | 0.00 | 0.21 | 0.01 | 32 | 1001.2 |
| 20260507201531 | 65 | 215 | 0.9 | 10.4 | 0.00 | 0.21 | 0.01 | 33 | 1001.2 |
| 20260507201025 | 65 | 316 | 1.7 | 10.4 | 0.00 | 0.21 | 0.01 | 32 | 1001.2 |
| 20260507200527 | 65 | 215 | 0.0 | 10.4 | 0.00 | 0.21 | 0.01 | 32 | 1001.3 |
| 20260507200024 | 66 | 307 | 2.6 | 10.4 | 0.00 | 0.21 | 0.01 | 32 | 1001.3 |
| 20260507195524 | 65 | 309 | 0.0 | 4.3 | 0.00 | 0.21 | 0.01 | 35 | 1001.3 |
| 20260507195028 | 65 | 335 | 0.0 | 8.7 | 0.00 | 0.21 | 0.01 | 35 | 1001.3 |
| 20260507194523 | 65 | 275 | 0.9 | 8.7 | 0.00 | 0.21 | 0.01 | 35 | 1001.3 |
| 20260507194023 | 66 | 248 | 0.9 | 8.7 | 0.00 | 0.21 | 0.01 | 33 | 1001.3 |
| 20260507193524 | 65 | 323 | 0.9 | 7.0 | 0.00 | 0.21 | 0.01 | 35 | 1001.6 |
| 20260507193026 | 65 | 224 | 0.0 | 8.7 | 0.00 | 0.21 | 0.01 | 34 | 1001.6 |
| 20260507192521 | 65 | 235 | 0.0 | 10.4 | 0.00 | 0.21 | 0.01 | 34 | 1001.6 |
| 20260507192021 | 66 | 264 | 2.6 | 10.4 | 0.00 | 0.21 | 0.01 | 35 | 1001.7 |
| 20260507191523 | 66 | 315 | 2.6 | 10.4 | 0.00 | 0.21 | 0.01 | 33 | 1001.7 |
| 20260507191022 | 66 | 300 | 1.7 | 10.4 | 0.00 | 0.21 | 0.01 | 33 | 1001.7 |
| 20260507190520 | 66 | 331 | 0.0 | 5.2 | 0.00 | 0.21 | 0.01 | 35 | 1001.7 |
| 20260507190020 | 66 | 243 | 0.0 | 10.4 | 0.00 | 0.21 | 0.01 | 35 | 1001.7 |
| 20260507185519 | 66 | 317 | 1.7 | 10.4 | 0.00 | 0.21 | 0.01 | 37 | 1001.7 |
| 20260507185020 | 65 | 331 | 0.0 | 10.4 | 0.00 | 0.21 | 0.01 | 36 | 1001.8 |
| 20260507184518 | 66 | 294 | 2.6 | 10.4 | 0.00 | 0.21 | 0.01 | 35 | 1001.8 |
| 20260507184019 | 66 | 294 | 0.0 | 6.1 | 0.00 | 0.21 | 0.01 | 38 | 1001.8 |
| 20260507183518 | 65 | 269 | 0.9 | 6.1 | 0.00 | 0.21 | 0.01 | 35 | 1001.9 |
| 20260507183028 | 65 | 233 | 0.9 | 12.2 | 0.00 | 0.21 | 0.01 | 36 | 1001.9 |
| 20260507182517 | 66 | 225 | 3.5 | 12.2 | 0.00 | 0.21 | 0.01 | 34 | 1001.9 |
| 20260507182017 | 65 | 341 | 0.9 | 8.7 | 0.00 | 0.21 | 0.01 | 37 | 1001.9 |
| 20260507181516 | 65 | 260 | 0.9 | 9.6 | 0.00 | 0.21 | 0.01 | 34 | 1001.9 |
| 20260507181016 | 65 | 256 | 1.7 | 8.7 | 0.00 | 0.21 | 0.01 | 35 | 1001.9 |
| 20260507180516 | 65 | 311 | 0.9 | 11.3 | 0.00 | 0.21 | 0.01 | 37 | 1002.0 |
| 20260507180017 | 65 | 301 | 3.5 | 12.2 | 0.00 | 0.21 | 0.01 | 35 | 1002.0 |
| 20260507175515 | 65 | 312 | 0.9 | 8.7 | 0.00 | 0.21 | 0.01 | 39 | 1002.0 |
| 20260507175015 | 65 | 302 | 3.5 | 9.6 | 0.00 | 0.21 | 0.01 | 37 | 1001.9 |
| 20260507174514 | 65 | 302 | 2.6 | 9.6 | 0.00 | 0.21 | 0.01 | 34 | 1001.9 |
| 20260507174013 | 66 | 325 | 1.7 | 7.8 | 0.00 | 0.21 | 0.01 | 37 | 1001.9 |
| 20260507173514 | 66 | 319 | 2.6 | 10.4 | 0.00 | 0.21 | 0.01 | 37 | 1002.1 |
| 20260507173013 | 65 | 321 | 0.9 | 7.0 | 0.00 | 0.21 | 0.01 | 41 | 1002.1 |
| 20260507172512 | 65 | 319 | 2.6 | 7.0 | 0.00 | 0.21 | 0.01 | 38 | 1002.1 |
| 20260507172011 | 65 | 297 | 0.9 | 9.6 | 0.00 | 0.21 | 0.01 | 37 | 1002.2 |
| 20260507171511 | 64 | 326 | 1.7 | 9.6 | 0.00 | 0.21 | 0.01 | 44 | 1002.2 |
| 20260507171009 | 64 | 355 | 3.5 | 11.3 | 0.00 | 0.21 | 0.01 | 43 | 1002.2 |
| 20260507170509 | 64 | 257 | 5.2 | 11.3 | 0.00 | 0.21 | 0.01 | 46 | 1002.3 |
| 20260507170007 | 63 | 205 | 2.6 | 10.4 | 0.00 | 0.21 | 0.01 | 45 | 1002.3 |
| 20260507165507 | 64 | 223 | 1.7 | 10.4 | 0.00 | 0.21 | 0.01 | 48 | 1002.3 |
| 20260507165005 | 63 | 223 | 4.3 | 10.4 | 0.00 | 0.21 | 0.01 | 51 | 1002.5 |
| 20260507164508 | 63 | 269 | 2.6 | 7.8 | 0.00 | 0.21 | 0.01 | 50 | 1002.5 |
| 20260507164004 | 62 | 271 | 0.9 | 7.8 | 0.00 | 0.21 | 0.01 | 53 | 1002.5 |
| 20260507163506 | 61 | 256 | 1.7 | 11.3 | 0.00 | 0.21 | 0.01 | 54 | 1002.7 |
| 20260507163004 | 60 | 219 | 4.3 | 11.3 | 0.00 | 0.21 | 0.01 | 55 | 1002.7 |
| 20260507162503 | 61 | 250 | 3.5 | 9.6 | 0.00 | 0.21 | 0.01 | 55 | 1002.7 |
| 20260507162006 | 61 | 290 | 0.9 | 5.2 | 0.00 | 0.21 | 0.01 | 56 | 1002.8 |
| 20260507161502 | 61 | 286 | 2.6 | 7.0 | 0.00 | 0.21 | 0.01 | 53 | 1002.8 |
| 20260507161002 | 61 | 297 | 2.6 | 8.7 | 0.00 | 0.21 | 0.01 | 56 | 1002.8 |
| 20260507160506 | 61 | 299 | 1.7 | 7.8 | 0.00 | 0.21 | 0.01 | 52 | 1003.0 |
| 20260507160003 | 62 | 273 | 2.6 | 7.8 | 0.00 | 0.21 | 0.01 | 54 | 1003.0 |
| 20260507155503 | 61 | 315 | 4.3 | 8.7 | 0.00 | 0.21 | 0.01 | 55 | 1003.0 |
| 20260507155001 | 60 | 276 | 2.6 | 8.7 | 0.00 | 0.21 | 0.01 | 56 | 1003.1 |
| 20260507154501 | 61 | 270 | 1.7 | 7.8 | 0.00 | 0.21 | 0.01 | 52 | 1003.1 |
| 20260507154002 | 61 | 302 | 3.5 | 7.8 | 0.00 | 0.21 | 0.01 | 52 | 1003.1 |
| 20260507153501 | 62 | 210 | 4.3 | 11.3 | 0.00 | 0.21 | 0.01 | 50 | 1003.2 |
| 20260507153000 | 61 | 275 | 4.3 | 11.3 | 0.00 | 0.21 | 0.01 | 51 | 1003.2 |
| 20260507152601 | 61 | 234 | 1.7 | 6.1 | 0.00 | 0.21 | 0.01 | 51 | 1003.2 |
| 20260507152105 | 62 | 251 | 0.9 | 7.8 | 0.00 | 0.21 | 0.01 | 49 | 1003.4 |
| 20260507151604 | 62 | 223 | 0.9 | 8.7 | 0.00 | 0.21 | 0.01 | 51 | 1003.4 |
| 20260507151100 | 62 | 180 | 1.7 | 8.7 | 0.00 | 0.21 | 0.01 | 49 | 1003.4 |
| 20260507150559 | 62 | 331 | 0.9 | 7.8 | 0.00 | 0.21 | 0.01 | 52 | 1003.7 |
| 20260507150059 | 61 | 211 | 0.9 | 13.0 | 0.00 | 0.21 | 0.01 | 52 | 1003.7 |
| 20260507145601 | 61 | 221 | 5.2 | 13.0 | 0.00 | 0.21 | 0.01 | 52 | 1003.7 |
| 20260507145057 | 61 | 265 | 0.9 | 7.8 | 0.00 | 0.21 | 0.01 | 55 | 1003.6 |
| 20260507144603 | 61 | 315 | 1.7 | 8.7 | 0.00 | 0.21 | 0.01 | 55 | 1003.6 |
| 20260507144056 | 61 | 274 | 2.6 | 8.7 | 0.00 | 0.21 | 0.01 | 52 | 1003.6 |
| 20260507143554 | 61 | 228 | 3.5 | 7.8 | 0.00 | 0.21 | 0.01 | 56 | 1003.6 |
| 20260507143107 | 60 | 273 | 1.7 | 7.8 | 0.00 | 0.21 | 0.01 | 58 | 1003.6 |
| 20260507142553 | 59 | 257 | 0.9 | 6.1 | 0.00 | 0.21 | 0.01 | 56 | 1003.6 |
| 20260507142053 | 59 | 268 | 1.7 | 7.0 | 0.00 | 0.21 | 0.01 | 55 | 1003.5 |
| 20260507141608 | 59 | 227 | 1.7 | 7.8 | 0.00 | 0.21 | 0.01 | 57 | 1003.5 |
| 20260507141053 | 59 | 216 | 0.9 | 7.8 | 0.00 | 0.21 | 0.01 | 60 | 1003.5 |
| 20260507140549 | 58 | 314 | 0.0 | 7.8 | 0.00 | 0.21 | 0.01 | 61 | 1003.4 |
| 20260507140048 | 58 | 220 | 1.7 | 7.8 | 0.00 | 0.21 | 0.01 | 62 | 1003.4 |
| 20260507135549 | 58 | 233 | 0.0 | 5.2 | 0.00 | 0.21 | 0.01 | 61 | 1003.4 |
| 20260507135047 | 58 | 255 | 0.0 | 5.2 | 0.00 | 0.21 | 0.01 | 63 | 1003.6 |
| 20260507134546 | 57 | 341 | 0.0 | 5.2 | 0.00 | 0.21 | 0.01 | 65 | 1003.6 |
| 20260507134044 | 57 | 292 | 0.9 | 5.2 | 0.00 | 0.21 | 0.01 | 63 | 1003.6 |
| 20260507133544 | 56 | 360 | 0.0 | 6.1 | 0.00 | 0.21 | 0.01 | 67 | 1004.0 |
| 20260507133044 | 56 | 319 | 0.9 | 6.1 | 0.00 | 0.21 | 0.01 | 67 | 1004.0 |
| 20260507132544 | 56 | 336 | 0.0 | 5.2 | 0.00 | 0.21 | 0.01 | 66 | 1004.0 |
| 20260507132042 | 56 | 311 | 0.9 | 5.2 | 0.00 | 0.21 | 0.01 | 66 | 1004.0 |
| 20260507131552 | 55 | 283 | 0.9 | 7.8 | 0.00 | 0.21 | 0.01 | 66 | 1004.0 |
| 20260507131044 | 55 | 300 | 0.0 | 7.8 | 0.00 | 0.21 | 0.01 | 67 | 1004.0 |
| 20260507130542 | 55 | 300 | 0.9 | 7.8 | 0.00 | 0.21 | 0.01 | 69 | 1004.1 |
| 20260507130045 | 55 | 229 | 0.0 | 6.1 | 0.00 | 0.21 | 0.01 | 69 | 1004.1 |
| 20260507125542 | 54 | 355 | 0.0 | 6.1 | 0.00 | 0.21 | 0.01 | 70 | 1004.1 |
| 20260507125045 | 54 | 304 | 0.0 | 6.1 | 0.00 | 0.21 | 0.01 | 70 | 1004.0 |
| 20260507124540 | 54 | 278 | 0.0 | 6.1 | 0.00 | 0.21 | 0.01 | 70 | 1004.0 |
| 20260507124040 | 53 | 331 | 1.7 | 7.0 | 0.00 | 0.21 | 0.01 | 71 | 1004.0 |
| 20260507123540 | 53 | 234 | 0.0 | 7.0 | 0.00 | 0.21 | 0.01 | 72 | 1004.1 |
| 20260507123043 | 53 | 333 | 0.0 | 7.0 | 0.00 | 0.21 | 0.01 | 72 | 1004.1 |
| 20260507122539 | 52 | 283 | 0.0 | 7.0 | 0.00 | 0.21 | 0.01 | 73 | 1004.1 |
| 20260507122039 | 52 | 360 | 0.0 | 7.0 | 0.00 | 0.21 | 0.01 | 74 | 1004.2 |
| 20260507121543 | 51 | 298 | 0.0 | 6.1 | 0.00 | 0.21 | 0.01 | 73 | 1004.2 |
| 20260507121038 | 51 | 250 | 2.6 | 6.1 | 0.00 | 0.21 | 0.01 | 75 | 1004.2 |
| 20260507120537 | 51 | 300 | 0.0 | 3.5 | 0.00 | 0.21 | 0.01 | 77 | 1004.1 |
| 20260507120037 | 51 | 288 | 0.0 | 4.3 | 0.00 | 0.21 | 0.01 | 76 | 1004.1 |
| 20260507115538 | 51 | 251 | 2.6 | 4.3 | 0.00 | 0.21 | 0.01 | 77 | 1004.1 |
| 20260507115037 | 51 | 286 | 0.0 | 6.1 | 0.00 | 0.21 | 0.01 | 76 | 1004.2 |
| 20260507114536 | 50 | 292 | 0.9 | 7.0 | 0.00 | 0.21 | 0.01 | 78 | 1004.2 |
| 20260507114036 | 50 | 298 | 2.6 | 7.0 | 0.00 | 0.21 | 0.01 | 79 | 1004.2 |
| 20260507113536 | 50 | 295 | 2.6 | 5.2 | 0.00 | 0.21 | 0.01 | 79 | 1003.8 |
| 20260507113036 | 50 | 303 | 0.0 | 7.8 | 0.00 | 0.21 | 0.01 | 80 | 1003.8 |
| 20260507112536 | 50 | 256 | 0.9 | 7.8 | 0.00 | 0.21 | 0.01 | 80 | 1003.8 |
| 20260507112034 | 49 | 306 | 1.7 | 5.2 | 0.00 | 0.21 | 0.01 | 81 | 1004.1 |
| 20260507111535 | 49 | 328 | 0.0 | 4.3 | 0.00 | 0.21 | 0.01 | 81 | 1004.1 |
| 20260507111034 | 49 | 329 | 0.0 | 4.3 | 0.00 | 0.21 | 0.01 | 81 | 1004.1 |
| 20260507110534 | 49 | 269 | 0.0 | 1.7 | 0.00 | 0.21 | 0.01 | 81 | 1003.9 |
| 20260507110034 | 49 | 267 | 0.0 | 6.1 | 0.00 | 0.21 | 0.01 | 81 | 1003.9 |
| 20260507105533 | 49 | 313 | 1.7 | 6.1 | 0.01 | 0.21 | 0.01 | 82 | 1003.9 |
| 20260507105033 | 49 | 330 | 0.0 | 0.0 | 0.01 | 0.21 | 0.01 | 82 | 1003.6 |
| 20260507104536 | 49 | 330 | 0.0 | 4.3 | 0.01 | 0.21 | 0.01 | 82 | 1003.6 |
| 20260507104032 | 49 | 330 | 0.9 | 4.3 | 0.01 | 0.21 | 0.01 | 82 | 1003.6 |
| 20260507103531 | 49 | 302 | 0.0 | 7.0 | 0.01 | 0.21 | 0.01 | 82 | 1003.5 |
| 20260507103032 | 49 | 306 | 2.6 | 7.0 | 0.01 | 0.21 | 0.01 | 82 | 1003.5 |
| 20260507102531 | 49 | 329 | 1.7 | 7.0 | 0.01 | 0.21 | 0.01 | 82 | 1003.5 |
| 20260507102033 | 49 | 280 | 1.7 | 7.0 | 0.01 | 0.21 | 0.01 | 82 | 1003.3 |
| 20260507101529 | 49 | 331 | 0.9 | 6.1 | 0.01 | 0.21 | 0.01 | 82 | 1003.3 |
| 20260507101028 | 49 | 334 | 0.0 | 3.5 | 0.01 | 0.21 | 0.01 | 83 | 1003.3 |
| 20260507100528 | 49 | 292 | 0.9 | 3.5 | 0.01 | 0.21 | 0.01 | 83 | 1003.8 |
| 20260507100036 | 49 | 283 | 0.9 | 4.3 | 0.01 | 0.21 | 0.01 | 82 | 1003.8 |
| 20260507095530 | 49 | 286 | 1.7 | 6.1 | 0.00 | 0.20 | 0.00 | 82 | 1003.8 |
| 20260507095027 | 49 | 297 | 1.7 | 5.2 | 0.00 | 0.20 | 0.00 | 83 | 1003.5 |
| 20260507094525 | 49 | 270 | 0.9 | 5.2 | 0.00 | 0.20 | 0.00 | 83 | 1003.5 |
| 20260507094026 | 49 | 320 | 0.9 | 5.2 | 0.00 | 0.20 | 0.00 | 83 | 1003.5 |
| 20260507093525 | 49 | 238 | 0.0 | 6.1 | 0.00 | 0.20 | 0.00 | 83 | 1003.7 |
| 20260507093024 | 49 | 250 | 0.0 | 6.1 | 0.00 | 0.20 | 0.00 | 83 | 1003.7 |
| 20260507092524 | 49 | 272 | 1.7 | 5.2 | 0.00 | 0.20 | 0.00 | 82 | 1003.7 |
| 20260507092027 | 50 | 250 | 0.0 | 5.2 | 0.00 | 0.20 | 0.00 | 83 | 1003.6 |
| 20260507091528 | 50 | 228 | 0.0 | 7.8 | 0.00 | 0.20 | 0.00 | 83 | 1003.6 |
| 20260507091023 | 50 | 332 | 1.7 | 7.0 | 0.00 | 0.20 | 0.00 | 83 | 1003.6 |
| 20260507090526 | 50 | 282 | 0.0 | 5.2 | 0.00 | 0.20 | 0.00 | 82 | 1003.2 |
| 20260507090022 | 50 | 228 | 0.0 | 3.5 | 0.00 | 0.20 | 0.00 | 82 | 1003.2 |
| 20260507085522 | 49 | 229 | 0.0 | 5.2 | 0.00 | 0.20 | 0.00 | 83 | 1003.2 |
| 20260507085022 | 49 | 320 | 0.0 | 5.2 | 0.00 | 0.20 | 0.00 | 83 | 1003.2 |
| 20260507084521 | 50 | 281 | 1.7 | 5.2 | 0.00 | 0.20 | 0.00 | 84 | 1003.2 |
| 20260507084023 | 50 | 226 | 1.7 | 5.2 | 0.00 | 0.20 | 0.00 | 84 | 1003.2 |
| 20260507083519 | 50 | 323 | 0.9 | 7.0 | 0.00 | 0.20 | 0.00 | 84 | 1003.1 |
| 20260507083019 | 50 | 278 | 0.9 | 7.0 | 0.00 | 0.20 | 0.00 | 84 | 1003.1 |
| 20260507082517 | 50 | 296 | 0.0 | 5.2 | 0.00 | 0.20 | 0.00 | 84 | 1003.1 |
| 20260507082016 | 50 | 279 | 0.0 | 5.2 | 0.00 | 0.20 | 0.00 | 84 | 1003.3 |
| 20260507081516 | 50 | 258 | 0.9 | 4.3 | 0.00 | 0.20 | 0.00 | 84 | 1003.3 |
| 20260507081016 | 51 | 252 | 0.9 | 6.1 | 0.00 | 0.20 | 0.00 | 83 | 1003.3 |
| 20260507080516 | 51 | 278 | 1.7 | 7.8 | 0.00 | 0.20 | 0.00 | 82 | 1003.0 |
| 20260507080014 | 51 | 283 | 1.7 | 9.6 | 0.00 | 0.20 | 0.00 | 81 | 1003.0 |
| 20260507075514 | 51 | 273 | 0.0 | 9.6 | 0.00 | 0.20 | 0.00 | 81 | 1003.0 |
| 20260507075013 | 51 | 304 | 4.3 | 7.8 | 0.00 | 0.20 | 0.00 | 81 | 1002.9 |
| 20260507074513 | 51 | 321 | 2.6 | 10.4 | 0.00 | 0.20 | 0.00 | 81 | 1002.9 |
| 20260507074014 | 51 | 275 | 3.5 | 10.4 | 0.00 | 0.20 | 0.00 | 81 | 1002.9 |
| 20260507073511 | 51 | 288 | 1.7 | 7.0 | 0.00 | 0.20 | 0.00 | 81 | 1002.7 |
| 20260507073011 | 51 | 282 | 1.7 | 7.0 | 0.00 | 0.20 | 0.00 | 81 | 1002.7 |
| 20260507072510 | 52 | 295 | 2.6 | 7.0 | 0.00 | 0.20 | 0.00 | 81 | 1002.7 |
| 20260507072009 | 52 | 287 | 0.0 | 7.0 | 0.00 | 0.20 | 0.00 | 82 | 1002.7 |
| 20260507071511 | 52 | 253 | 2.6 | 7.0 | 0.00 | 0.20 | 0.00 | 83 | 1002.7 |
| 20260507071011 | 52 | 313 | 3.5 | 7.0 | 0.00 | 0.20 | 0.00 | 84 | 1002.7 |
| 20260507070507 | 52 | 235 | 1.7 | 7.0 | 0.00 | 0.20 | 0.00 | 85 | 1002.6 |
| 20260507070010 | 52 | 264 | 1.7 | 7.0 | 0.00 | 0.20 | 0.00 | 85 | 1002.6 |
| 20260507065505 | 52 | 219 | 0.0 | 3.5 | 0.00 | 0.20 | 0.00 | 86 | 1002.6 |
| 20260507065006 | 52 | 263 | 0.0 | 7.0 | 0.00 | 0.20 | 0.00 | 87 | 1002.4 |
| 20260507064504 | 53 | 292 | 1.7 | 7.0 | 0.00 | 0.20 | 0.00 | 87 | 1002.4 |
| 20260507064004 | 53 | 252 | 0.9 | 3.5 | 0.00 | 0.20 | 0.00 | 87 | 1002.4 |
| 20260507063504 | 53 | 269 | 0.0 | 0.0 | 0.00 | 0.20 | 0.00 | 87 | 1002.3 |
| 20260507063004 | 53 | 269 | 0.0 | 3.5 | 0.00 | 0.20 | 0.00 | 87 | 1002.3 |
| 20260507062503 | 53 | 269 | 0.9 | 3.5 | 0.00 | 0.20 | 0.00 | 87 | 1002.3 |
| 20260507062003 | 53 | 260 | 0.9 | 3.5 | 0.00 | 0.20 | 0.00 | 87 | 1002.2 |
| 20260507061503 | 53 | 259 | 0.0 | 4.3 | 0.00 | 0.20 | 0.00 | 87 | 1002.2 |
| 20260507061005 | 53 | 288 | 0.0 | 4.3 | 0.00 | 0.20 | 0.00 | 86 | 1002.2 |
| 20260507060501 | 53 | 315 | 0.0 | 5.2 | 0.00 | 0.20 | 0.00 | 86 | 1002.6 |
| 20260507060001 | 53 | 259 | 0.0 | 8.7 | 0.00 | 0.20 | 0.00 | 86 | 1002.6 |
| 20260507055502 | 53 | 265 | 0.0 | 4.3 | 0.00 | 0.20 | 0.00 | 87 | 1002.6 |
| 20260507055001 | 53 | 263 | 0.9 | 4.3 | 0.00 | 0.20 | 0.00 | 87 | 1002.4 |
| 20260507054608 | 53 | 242 | 0.0 | 4.3 | 0.00 | 0.20 | 0.00 | 87 | 1002.4 |
| 20260507054059 | 53 | 242 | 0.0 | 5.2 | 0.00 | 0.20 | 0.00 | 87 | 1002.4 |
| 20260507053600 | 53 | 270 | 0.0 | 5.2 | 0.00 | 0.20 | 0.00 | 87 | 1002.7 |
| 20260507053110 | 53 | 276 | 0.0 | 4.3 | 0.00 | 0.20 | 0.00 | 87 | 1002.7 |
| 20260507052558 | 54 | 265 | 0.9 | 4.3 | 0.00 | 0.20 | 0.00 | 87 | 1002.7 |
| 20260507052058 | 54 | 292 | 0.0 | 6.1 | 0.00 | 0.20 | 0.00 | 87 | 1002.8 |
| 20260507051607 | 54 | 267 | 0.9 | 6.1 | 0.00 | 0.20 | 0.00 | 87 | 1002.8 |
| 20260507051056 | 54 | 265 | 0.0 | 9.6 | 0.00 | 0.20 | 0.00 | 87 | 1002.8 |
| 20260507050556 | 54 | 279 | 0.0 | 6.1 | 0.00 | 0.20 | 0.00 | 87 | 1002.6 |
| 20260507050056 | 54 | 296 | 0.9 | 7.0 | 0.00 | 0.20 | 0.00 | 88 | 1002.6 |
| 20260507045555 | 54 | 288 | 1.7 | 7.0 | 0.00 | 0.20 | 0.00 | 87 | 1002.6 |
| 20260507045055 | 54 | 272 | 0.0 | 7.0 | 0.00 | 0.20 | 0.00 | 88 | 1002.3 |
| 20260507044557 | 54 | 254 | 0.0 | 7.8 | 0.00 | 0.20 | 0.00 | 87 | 1002.3 |
| 20260507044056 | 55 | 285 | 3.5 | 8.7 | 0.00 | 0.20 | 0.00 | 87 | 1002.3 |
| 20260507043551 | 55 | 298 | 3.5 | 8.7 | 0.00 | 0.20 | 0.00 | 87 | 1002.6 |
| 20260507043052 | 56 | 311 | 2.6 | 10.4 | 0.00 | 0.20 | 0.00 | 88 | 1002.6 |
| 20260507042547 | 56 | 281 | 2.6 | 7.8 | 0.00 | 0.20 | 0.00 | 89 | 1002.6 |
| 20260507042046 | 57 | 318 | 2.6 | 7.8 | 0.00 | 0.20 | 0.20 | 89 | 1002.5 |
| 20260507041545 | 57 | 280 | 3.5 | 7.8 | 0.00 | 0.20 | 0.20 | 89 | 1002.5 |
| 20260507041044 | 58 | 275 | 2.6 | 7.8 | 0.00 | 0.20 | 0.20 | 89 | 1002.5 |
| 20260507040542 | 59 | 307 | 2.6 | 7.8 | 0.00 | 0.20 | 0.20 | 91 | 1002.0 |
| 20260507040042 | 59 | 217 | 0.0 | 4.3 | 0.00 | 0.20 | 0.20 | 91 | 1002.0 |
| 20260507035541 | 59 | 249 | 0.0 | 4.3 | 0.00 | 0.20 | 0.20 | 91 | 1002.0 |
| 20260507035041 | 59 | 244 | 0.9 | 4.3 | 0.00 | 0.20 | 0.20 | 91 | 1001.8 |
| 20260507034540 | 59 | 221 | 0.0 | 8.7 | 0.00 | 0.20 | 0.20 | 91 | 1001.8 |
| 20260507034039 | 60 | 302 | 2.6 | 8.7 | 0.00 | 0.20 | 0.20 | 91 | 1001.8 |
| 20260507033539 | 60 | 269 | 2.6 | 10.4 | 0.00 | 0.20 | 0.20 | 92 | 1001.6 |
| 20260507033038 | 60 | 200 | 0.0 | 7.0 | 0.00 | 0.20 | 0.20 | 92 | 1001.6 |
| 20260507032538 | 60 | 279 | 0.9 | 5.2 | 0.00 | 0.20 | 0.20 | 92 | 1001.6 |
| 20260507032039 | 60 | 231 | 0.0 | 8.7 | 0.00 | 0.20 | 0.20 | 92 | 1001.3 |
| 20260507031538 | 60 | 236 | 3.5 | 8.7 | 0.00 | 0.20 | 0.20 | 91 | 1001.3 |
| 20260507031037 | 60 | 219 | 2.6 | 8.7 | 0.00 | 0.20 | 0.20 | 91 | 1001.3 |
| 20260507030537 | 60 | 218 | 3.5 | 8.7 | 0.00 | 0.20 | 0.20 | 91 | 1001.3 |
| 20260507030038 | 60 | 216 | 2.6 | 8.7 | 0.00 | 0.20 | 0.20 | 91 | 1001.3 |
| 20260507025537 | 60 | 222 | 2.6 | 7.0 | 0.00 | 0.20 | 0.20 | 91 | 1001.3 |
| 20260507025039 | 60 | 225 | 1.7 | 8.7 | 0.00 | 0.20 | 0.20 | 91 | 1001.5 |
| 20260507024535 | 60 | 223 | 1.7 | 8.7 | 0.00 | 0.20 | 0.20 | 91 | 1001.5 |
| 20260507024034 | 60 | 233 | 0.0 | 8.7 | 0.00 | 0.20 | 0.20 | 91 | 1001.5 |
| 20260507023534 | 60 | 184 | 2.6 | 7.8 | 0.00 | 0.20 | 0.20 | 91 | 1001.4 |
| 20260507023036 | 60 | 217 | 0.9 | 6.1 | 0.00 | 0.20 | 0.20 | 91 | 1001.4 |
| 20260507022534 | 60 | 215 | 0.9 | 7.0 | 0.00 | 0.20 | 0.20 | 91 | 1001.4 |
| 20260507022034 | 60 | 187 | 3.5 | 7.8 | 0.00 | 0.20 | 0.20 | 91 | 1001.4 |
| 20260507021539 | 60 | 206 | 2.6 | 7.8 | 0.00 | 0.20 | 0.20 | 91 | 1001.4 |
| 20260507021033 | 60 | 190 | 0.9 | 10.4 | 0.00 | 0.20 | 0.20 | 91 | 1001.4 |
| 20260507020533 | 60 | 190 | 3.5 | 8.7 | 0.00 | 0.20 | 0.20 | 91 | 1001.6 |
| 20260507020035 | 60 | 178 | 0.9 | 13.0 | 0.00 | 0.20 | 0.20 | 91 | 1001.6 |
| 20260507015535 | 60 | 204 | 1.7 | 13.0 | 0.00 | 0.20 | 0.20 | 91 | 1001.6 |
| 20260507015034 | 59 | 257 | 2.6 | 7.0 | 0.01 | 0.20 | 0.20 | 91 | 1001.6 |
| 20260507014531 | 60 | 207 | 1.7 | 7.8 | 0.01 | 0.20 | 0.20 | 91 | 1001.6 |
| 20260507014031 | 60 | 192 | 1.7 | 9.6 | 0.01 | 0.20 | 0.20 | 91 | 1001.6 |
| 20260507013530 | 60 | 204 | 3.5 | 9.6 | 0.01 | 0.20 | 0.20 | 91 | 1001.7 |
| 20260507013030 | 60 | 226 | 0.9 | 8.7 | 0.01 | 0.20 | 0.20 | 91 | 1001.7 |
| 20260507012534 | 59 | 215 | 3.5 | 10.4 | 0.01 | 0.20 | 0.20 | 91 | 1001.7 |
| 20260507012030 | 59 | 200 | 3.5 | 8.7 | 0.01 | 0.20 | 0.20 | 91 | 1001.7 |
| 20260507011534 | 60 | 185 | 3.5 | 8.7 | 0.01 | 0.20 | 0.20 | 91 | 1001.7 |
| 20260507011028 | 60 | 187 | 0.9 | 7.0 | 0.01 | 0.20 | 0.20 | 91 | 1001.7 |
| 20260507010530 | 60 | 174 | 1.7 | 7.0 | 0.01 | 0.20 | 0.20 | 91 | 1001.7 |
| 20260507010038 | 60 | 184 | 2.6 | 12.2 | 0.01 | 0.20 | 0.20 | 91 | 1001.7 |
| 20260507005528 | 60 | 209 | 5.2 | 12.2 | 0.01 | 0.20 | 0.20 | 91 | 1001.7 |
| 20260507005026 | 60 | 178 | 3.5 | 9.6 | 0.00 | 0.19 | 0.19 | 91 | 1001.7 |